Miscellaneous Local Product
Issued by NWS Hastings, NE

Home | Current Version | Previous Version | Text Only | Print | Product List | Glossary Off
Versions: 1 2 3 4 5 6 7 8 9 10 11 12 13 14 15 16 17 18 19 20 21 22 23 24 25 26 27 28 29 30 31 32 33 34 35 36 37 38 39 40 41 42 43 44 45 46 47 48 49 50

000
AXUS43 KGID 220302
MISGRI

GID CWA HOURLY WEATHER ROUNDUP
NATIONAL WEATHER SERVICE HASTINGS NE
1000 PM CDT TUE MAR 21 2017

NOTE: "FAIR" INDICATES FEW OR NO CLOUDS BELOW 12,000 FEET WITH NO
SIGNIFICANT WEATHER AND/OR OBSTRUCTIONS TO VISIBILITY.

...SOUTH CENTRAL NEBRASKA...

CITY           SKY/WX    TMP DP  RH WIND       PRES   REMARKS
GRAND ISLAND   CLOUDY    35  27  72 NE9       30.40R WCI  28
HASTINGS       MOCLDY    38  25  59 NE13      30.39R WCI  30
KEARNEY        CLOUDY    39  23  52 NE17      30.38R WCI  30
ORD            CLOUDY    35  26  69 NE5       30.40R WCI  31
YORK           PTCLDY    36  27  69 NE6       30.40R WCI  31
AURORA         PTCLDY    35  25  66 NE8       30.39S WCI  28
LEXINGTON      CLOUDY    41  32  69 E10       30.35F
HOLDREGE       PTCLDY    39  30  70 NE13      30.35S WCI  31
HEBRON         CLOUDY    40  23  50 NE9       30.37R WCI  34

...NEBRASKA PANHANDLE...

CITY           SKY/WX    TMP DP  RH WIND       PRES   REMARKS
CHADRON        CLOUDY    39  32  76 E10       30.20R WCI  32
ALLIANCE       CLOUDY    37  32  82 SE21      30.23R WCI  26
SCOTTSBLUFF    MOCLDY    49  26  41 SE20      30.15F
SIDNEY         CLOUDY    47  23  38 SE20      30.21R

...WESTERN AND NORTH CENTRAL NEBRASKA...

CITY           SKY/WX    TMP DP  RH WIND       PRES   REMARKS
VALENTINE      CLOUDY    31  26  82 E12       30.36S WCI  22
AINSWORTH      CLOUDY    32  29  92 E6        30.38S WCI  26
ONEILL         CLOUDY    35  32  90 CALM      30.41S
BROKEN BOW     CLOUDY    36  25  64 E14       30.37R WCI  27
IMPERIAL       CLOUDY    42  32  67 E18       30.27R
NORTH PLATTE   CLOUDY    39  32  76 E20       30.30F WCI  29
MCCOOK         CLOUDY    42  33  70 E16       30.31R

...EASTERN NEBRASKA...

CITY           SKY/WX    TMP DP  RH WIND       PRES   REMARKS
NORFOLK        CLOUDY    38  22  52 NE10      30.42R WCI  31
SO SIOUX CITY  MOCLDY    37  23  56 NE13      30.46R WCI  29
TEKAMAH        CLOUDY    39  27  62 N13       30.44R WCI  31
COLUMBUS       MOCLDY    36  25  64 N5        30.42R WCI  32
ALBION         CLOUDY    38  28  67 CALM      30.41S
OMAHA EPPLEY   MOCLDY    44  24  45 NE12      30.41R
OFFUTT AFB     CLOUDY    43  22  43 NE12      30.40R
MILLARD        CLOUDY    46  24  42 NE9       30.41R
LINCOLN        PTCLDY    36  27  69 N8        30.41R WCI  30
NEBRASKA CITY  PTCLDY    41  19  42 NE9       30.39R
BEATRICE       PTCLDY    39  28  64 NE9       30.38R WCI  33
FALLS CITY     CLEAR     42  25  50 NE6       30.36R

...NORTHERN KANSAS...

CITY           SKY/WX    TMP DP  RH WIND       PRES   REMARKS
GOODLAND       CLOUDY    43  26  51 E7        30.26R
HILL CITY      CLOUDY    48  35  60 E18G24    30.30R
NORTON         CLEAR     41  28  60 NE15      30.31R
PHILLIPSBURG   CLEAR     45  34  65 NE13G22   30.32R
HAYS             N/A     51  32  48 E21G28    30.27R
RUSSELL        CLOUDY    50  34  54 NE18G25   30.27R
CONCORDIA      PTCLDY    45  32  60 NE13      30.32R
SALINA         CLOUDY    53  36  52 NE16G25   30.28R
TOPEKA         CLEAR     50  38  63 NE10      30.30R



USA.gov is the U.S. government's official web portal to all federal, state and local government web resources and services.